Denver, CO

5:58 AM MDT on July 29, 2017 (GMT -0600)
Denver International

Weather History for KDEN - May, 2012

Change the Weather History Date:

Tuesday, May 22, 2012

  Actual Average Record
Temperature  
Mean Temperature 74 °F 59 °F  
Max Temperature 93 °F 74 °F 93 °F (2012)
Min Temperature 55 °F 45 °F 32 °F (1930)
Degree Days  
Heating Degree Days 0 7  
Month to date heating degree days 142 217  
Since 1 July heating degree days 5357 5948  
Cooling Degree Days 9 1  
Month to date cooling degree days 36 7  
Year to date cooling degree days 42 8  
Growing Degree Days 27 (Base 50)    
Moisture  
Dew Point 28 °F    
Average Humidity 29    
Maximum Humidity 51    
Minimum Humidity 7    
Precipitation  
Precipitation 0.00 in 0.07 in 6.50 in (1876)
Month to date precipitation 0.41 1.47  
Year to date precipitation 2.99 4.88  
Snow  
Snow 0.00 in - - ()
Month to date snowfall 0  
Since 1 July snowfall 55.6  
Snow Depth 0.00 in    
Sea Level Pressure  
Sea Level Pressure 29.56 in    
Wind  
Wind Speed 12 mph (SW)    
Max Wind Speed 21 mph    
Max Gust Speed 26 mph    
Visibility 10 miles    
Events      
T = Trace of Precipitation, MM = Missing Value Source: NWS Daily Summary

Daily Weather History Graph

Daily Weather History Graph

Search for Another Location

Airport or City:

Trip Planner

Search our weather history database for the weather conditions in past years. The results will help you decide how hot, cold, wet, or windy it might be!

Date:

Astronomy

May. 22, 2012 Rise Set
Actual Time 5:37 AM MDT 8:13 PM MDT
Civil Twilight 5:06 AM MDT 8:44 PM MDT
Nautical Twilight 4:27 AM MDT 9:24 PM MDT
Astronomical Twilight 3:43 AM MDT 10:08 PM MDT
Moon 6:50 AM MDT (5/22) 9:53 PM MDT (5/22)
Length of Visible Light 15h 38m
Length of Day
14h 35m
Waxing Crescent, 3% of the Moon is Illuminated
May 22
Waxing Crescent
May 28
First Quarter
Jun 4
Full
Jun 11
Last Quarter
Jun 19
New

Hourly Weather History & Observations

Time (MDT) Temp. Dew Point Humidity Pressure Visibility Wind Dir Wind Speed Gust Speed Precip Events Conditions
12:53 AM 55.9 °F 37.9 °F 51% 29.80 in 10.0 mi South 11.5 mph - N/A   Clear
1:53 AM 63.0 °F 37.9 °F 40% 29.77 in 10.0 mi South 13.8 mph - N/A   Clear
2:53 AM 63.0 °F 39.9 °F 43% 29.75 in 10.0 mi SSW 15.0 mph - N/A   Clear
3:53 AM 63.0 °F 39.9 °F 43% 29.74 in 10.0 mi SSW 15.0 mph - N/A   Clear
4:53 AM 61.0 °F 37.9 °F 42% 29.72 in 10.0 mi SSW 12.7 mph - N/A   Partly Cloudy
5:53 AM 61.0 °F 37.9 °F 42% 29.72 in 10.0 mi SSW 15.0 mph - N/A   Scattered Clouds
6:53 AM 64.9 °F 37.9 °F 37% 29.70 in 10.0 mi SSW 19.6 mph 25.3 mph N/A   Partly Cloudy
7:53 AM 72.0 °F 37.9 °F 29% 29.69 in 10.0 mi SSW 17.3 mph - N/A   Partly Cloudy
8:53 AM 79.0 °F 35.1 °F 20% 29.68 in 10.0 mi SW 17.3 mph - N/A   Scattered Clouds
9:53 AM 82.9 °F 28.0 °F 14% 29.66 in 10.0 mi SW 13.8 mph - N/A   Scattered Clouds
10:53 AM 82.9 °F 27.0 °F 13% 29.64 in 10.0 mi WSW 13.8 mph - N/A   Mostly Cloudy
11:53 AM 84.0 °F 21.9 °F 10% 29.62 in 10.0 mi SSW 17.3 mph - N/A   Overcast
12:53 PM 87.1 °F 17.1 °F 8% 29.59 in 10.0 mi South 17.3 mph 24.2 mph N/A   Overcast
1:53 PM 88.0 °F 17.1 °F 7% 29.53 in 10.0 mi SSW 15.0 mph 20.7 mph N/A   Mostly Cloudy
2:53 PM 87.1 °F 19.0 °F 8% 29.50 in 10.0 mi South 5.8 mph - N/A   Mostly Cloudy
3:53 PM 91.0 °F 19.9 °F 7% 29.44 in 10.0 mi SSE 11.5 mph 18.4 mph N/A   Mostly Cloudy
4:53 PM 91.9 °F 18.0 °F 7% 29.41 in 10.0 mi North 4.6 mph - N/A   Scattered Clouds
5:53 PM 91.0 °F 18.0 °F 7% 29.39 in 10.0 mi NW 9.2 mph 18.4 mph N/A   Mostly Cloudy
6:53 PM 88.0 °F 19.9 °F 8% 29.38 in 10.0 mi NW 10.4 mph - N/A   Mostly Cloudy
7:53 PM 81.0 °F 21.9 °F 11% 29.38 in 10.0 mi NNW 10.4 mph - N/A   Mostly Cloudy
8:53 PM 78.1 °F 23.0 °F 13% 29.37 in 10.0 mi NNE 4.6 mph - N/A   Mostly Cloudy
9:53 PM 75.9 °F 23.0 °F 14% 29.37 in 10.0 mi Calm Calm - N/A   Mostly Cloudy
10:53 PM 69.1 °F 24.1 °F 18% 29.39 in 10.0 mi SSW 6.9 mph - N/A   Mostly Cloudy
11:53 PM 70.0 °F 25.0 °F 18% 29.39 in 10.0 mi WSW 5.8 mph - N/A   Mostly Cloudy